Regional Weather Roundup
Issued by NWS

Home | Current Version | Previous Version | Graphics & Text | Print | Product List | Glossary On
Versions: 1 2 3 4 5 6 7 8 9 10 11 12 13 14 15 16 17 18 19 20 21 22 23 24 25 26 27 28 29 30 31 32 33 34 35 36 37 38 39 40 41 42 43 44 45 46 47 48 49 50
000
ASUS43 KDTX 201501
RWRMI
MICHIGAN HOURLY REGIONAL WEATHER ROUNDUP
NATIONAL WEATHER SERVICE DETROIT/PONTIAC MI
1000 AM EST TUE FEB 20 2018

NOTE: "FAIR" INDICATES FEW OR NO CLOUDS BELOW 12,000 FEET WITH NO
SIGNIFICANT WEATHER AND/OR OBSTRUCTION TO VISIBILITY.

MIZ047>049-052>055-059>063-066>070-074>076-081>083-201600-
SOUTHEAST LOWER MICHIGAN

CITY           SKY/WX    TMP DP  RH WIND       PRES   REMARKS
ADRIAN         RAIN      57  55  93 SW17      29.99F FOG
ANN ARBOR      CLOUDY    55  55 100 S13       29.97S
BAD AXE        RAIN      52  52 100 S9        29.92R
CARO           DRIZZLE   57  56  96 S8        29.90F
DETROIT CITY   LGT RAIN  57  54  89 S12       29.97F FOG
DETROIT        LGT RAIN  59  56  89 S18       29.98F
FLINT          CLOUDY    57  55  93 S12G21    29.91F
GROSSE ILE     LGT RAIN  48  47  99 S14       29.98F
HILLSDALE      RAIN      55  54  94 S14G22    29.97R
HOWELL         LGT RAIN  57  56  96 S13G21    29.92F

CITY           SKY/WX    TMP DP  RH WIND       PRES   REMARKS
JACKSON        RAIN      60  58  92 S17G28    29.94R FOG
LAMBERTVILLE   RAIN      60  57  89 SW15G21   30.00S
LANSING        HVY RAIN  57  57 100 NW15      29.92R FOG
LAPEER         LGT RAIN  58  57  97 SW16      29.93S
MASON          RAIN      60  55  85 S13G21    29.91S
MT. CLEMENS    LGT RAIN  49  49 100 S9        29.95F FOG
PONTIAC        LGT RAIN  57  56  96 S12G20    29.94F
PORT HOPE        N/A     53  52  96 SW8       29.89R
PORT HURON     LGT RAIN  54  52  94 S10       29.97S
TRI CITIES     LGT RAIN  55  54  96 S10       29.89S FOG
MIDLAND        DRIZZLE   55  55 100 S7        29.87F
TROY           RAIN      56  55  96 S8        29.98F
SAGINAW HB     RAIN      54  54 100 S9        29.89S
$$
MIZ043>046-050>051-056>058-064>065-071>073-077>080-201600-
SOUTHWEST LOWER MICHIGAN

CITY           SKY/WX    TMP DP  RH WIND       PRES   REMARKS
BATTLE CREEK   RAIN      59  58  96 SW20G29   29.91R FOG
BENTON HARBOR  CLOUDY    57  55  93 SW13      29.92R FOG
BIG RAPIDS     LGT RAIN  55  53  93 SW12G17   29.85R
COLDWATER      RAIN      60  60 100 S12G23    29.95R
FREMONT        LGT RAIN  54  52  94 W9        29.87R
HOLLAND        LGT RAIN  59  56  89 SW16      29.89S
GRAND RAPIDS   LGT RAIN  58  57  97 SW8       29.90R
IONIA          LGT RAIN  56  56 100 S8        29.89S
KALAMAZOO      RAIN      59  57  93 SW10      29.93R FOG
LUDINGTON      DRIZZLE   39  39 100 SE6       29.83F WCI  35
MARSHALL       RAIN      59  59  98 SW15G22   29.92R
MOUNT PLEASANT RAIN      54  53  97 S3        29.86S
MUSKEGON       FOG       51  49  92 W15G26    29.88R VSB 1/2
SOUTH HAVEN    RAIN      59  58  95 SW10G20   29.91R
$$
MIZ016>042-201600-
NORTHERN LOWER MICHIGAN

CITY           SKY/WX    TMP DP  RH WIND       PRES   REMARKS
ALPENA         CLOUDY    33  33 100 E3        29.88F
BEAVER ISLAND  LGT SNOW  32  32  99 E6        29.80F WCI  27
BELLAIRE       MIX PCPN  40  40 100 SE6       29.84S
CADILLAC       RAIN      53  53  99 W12G20    29.82S
CHARLEVOIX     LGT RAIN  36  36 100 E9        29.84F WCI  29
FRANKFORT      FAIR      41  41 100 SE5       29.78F
GAYLORD        LGT RAIN  34  34 100 CALM      29.83S FOG
GRAYLING       FOG       37  37 100 CALM      29.83S VSB 7/8
HARBOR SPRINGS LGT RAIN  32  32 100 E5        29.85F WCI  27
HOUGHTON LAKE  RAIN      49  48  97 S7        29.84F FOG
MANISTEE       LGT RAIN  39  39 100 E5        29.82F
OSCODA         MIX PCPN  35  34  98 CALM      29.88F
PELLSTON       FRZ RAIN  32  31  96 E8        29.86F FOG     WCI  25
ROGERS CITY    RAIN      32  31  97 E3        29.90S
TRAVERSE CITY  LGT RAIN  43  42  97 CALM      29.81F
$$
MIZ007>008-015-201600-
EASTERN UPPER MICHIGAN

CITY           SKY/WX    TMP DP  RH WIND       PRES   REMARKS
KINROSS        MIX PCPN  23  22  96 SE14      29.87F FOG     WCI  11
MACKINAC ISLAN CLOUDY    27  27 100 SE13G28   29.87S FOG     WCI  16
NEWBERRY       MIX PCPN  24  23  96 E9        29.81F WCI  14
S. S. MARIE    CLOUDY    22  20  92 SE9       29.89R FOG     WCI  12
MUNISING         N/A     25  24  96 CALM      29.77F
$$
MIZ004>006-011>014-085-201600-
CENTRAL UPPER MICHIGAN

CITY           SKY/WX    TMP DP  RH WIND       PRES   REMARKS
MANISTIQUE     MIX PCPN  29  28  94 E7        29.76F WCI  22
ESCANABA       CLOUDY    27  25  92 N5        29.77F WCI  22
SAWYER-GWINN   CLOUDY    23  21  93 CALM      29.74F FOG
$$
MIZ001>003-009>011-084-201600-
WESTERN UPPER MICHIGAN

CITY           SKY/WX    TMP DP  RH WIND       PRES   REMARKS
IRON MOUNTAIN  CLOUDY    25  23  92 CALM      29.75F
HOUGHTON       CLOUDY    25  21  85 E8        29.77F FOG     WCI  16
COPPER HARBOR    N/A     25  22  88 SE8       29.82F WCI  16
IRONWOOD       LGT SNOW  18  16  92 W3        29.79S FOG
$$

ABBREVIATIONS USED IN REMARKS
   TC - TEMPERATURE IN CELSIUS
  WCI - WIND CHILL INDEX
   HX - HEAT INDEX
  VSB - VISIBILITY





USA.gov is the U.S. government's official web portal to all federal, state and local government web resources and services.